TimeEST,TemperatureF,Dew PointF,Humidity,Sea Level PressureIn,VisibilityMPH,Wind Direction,Wind SpeedMPH,Gust SpeedMPH,PrecipitationIn,Events,Conditions,WindDirDegrees,DateUTC
12:53 AM,28.0,24.1,85,30.25,10.0,Calm,Calm,-,N/A,,Clear,0,2012-11-22 05:53:00
1:53 AM,27.0,24.1,89,30.26,10.0,Calm,Calm,-,N/A,,Clear,0,2012-11-22 06:53:00
2:53 AM,27.0,24.1,89,30.25,10.0,ESE,3.5,-,N/A,,Clear,120,2012-11-22 07:53:00
3:53 AM,27.0,23.0,85,30.25,10.0,ESE,5.8,-,N/A,,Clear,120,2012-11-22 08:53:00
4:53 AM,28.0,24.1,85,30.26,10.0,SE,5.8,-,N/A,,Clear,130,2012-11-22 09:53:00
5:53 AM,27.0,24.1,89,30.26,10.0,SE,5.8,-,N/A,,Clear,130,2012-11-22 10:53:00
6:53 AM,30.0,26.1,85,30.27,10.0,SE,4.6,-,N/A,,Clear,130,2012-11-22 11:53:00
7:53 AM,30.9,26.1,82,30.27,10.0,SE,3.5,-,N/A,,Clear,140,2012-11-22 12:53:00
8:53 AM,32.0,28.0,85,30.27,10.0,SE,5.8,-,N/A,,Clear,140,2012-11-22 13:53:00
9:53 AM,41.0,30.0,65,30.25,10.0,SE,5.8,-,N/A,,Clear,130,2012-11-22 14:53:00
10:53 AM,46.9,30.0,52,30.24,10.0,ESE,5.8,-,N/A,,Clear,110,2012-11-22 15:53:00
11:53 AM,51.1,30.0,44,30.21,10.0,ESE,4.6,-,N/A,,Clear,110,2012-11-22 16:53:00
12:53 PM,55.0,28.0,35,30.19,10.0,Variable,3.5,-,N/A,,Clear,0,2012-11-22 17:53:00
1:53 PM,57.0,28.0,33,30.16,10.0,ESE,3.5,-,N/A,,Clear,110,2012-11-22 18:53:00
2:53 PM,59.0,28.0,31,30.14,10.0,East,4.6,-,N/A,,Clear,90,2012-11-22 19:53:00
3:53 PM,55.9,28.9,36,30.14,10.0,East,5.8,-,N/A,,Clear,100,2012-11-22 20:53:00
4:53 PM,48.0,28.0,46,30.14,10.0,ESE,5.8,-,N/A,,Clear,120,2012-11-22 21:53:00
5:53 PM,45.0,28.0,52,30.13,10.0,ESE,4.6,-,N/A,,Clear,110,2012-11-22 22:53:00
6:53 PM,41.0,28.0,60,30.12,10.0,SE,4.6,-,N/A,,Clear,140,2012-11-22 23:53:00
7:53 PM,37.9,28.0,68,30.12,10.0,SE,4.6,-,N/A,,Clear,130,2012-11-23 00:53:00
9:53 PM,34.0,27.0,75,30.09,10.0,Calm,Calm,-,N/A,,Clear,0,2012-11-23 02:53:00
10:53 PM,33.1,26.1,75,30.06,10.0,ESE,5.8,-,N/A,,Clear,120,2012-11-23 03:53:00
11:53 PM,30.9,25.0,79,30.05,10.0,SE,5.8,-,N/A,,Clear,130,2012-11-23 04:53:00